[[[{"header":{"parameterUnit":"kt","parameterCategory":2,"dx":1,"dy":1,"la1":30.253999710083008,"la2":30.299108505249023,"lo1":-89.0895004272461,"lo2":-89.04439544677734,"nx":28,"ny":28,"refTime":"2022-10-05T21:00:00:Z","depth":0,"parameterNumber":1,"parameterNumberName":"U-component_of_WINDS"},"data":[4.0718,4.086,4.0917,4.1105,4.1189,4.1327,4.1395,4.1488,4.1578,4.1749,4.1858,4.1931,4.2042,4.2186,4.2306,4.2336,4.2382,4.2389,4.2422,4.2338,4.233,4.2322,4.2291,4.2399,4.2399,4.25,4.25,4.2501,4.0647,4.0731,4.0848,4.1001,4.1101,4.1129,4.1252,4.1334,4.1457,4.1569,4.168,4.1836,4.1966,4.2079,4.2214,4.2281,4.2301,4.2313,4.2307,4.2324,4.2237,4.2204,4.2294,4.2294,4.2294,4.2294,4.2294,4.2294,4.0533,4.0617,4.0743,4.0871,4.0964,4.1066,4.1155,4.1244,4.1359,4.1508,4.1556,4.1696,4.1819,4.2012,4.2091,4.2202,4.2199,4.223,4.2238,4.2243,4.224,4.2081,4.2228,4.2228,4.2228,4.2228,4.2228,0,4.0467,4.051,4.0627,4.0761,4.0858,4.0968,4.1079,4.1136,4.1248,4.1339,4.1475,4.1564,4.1738,4.1873,4.2013,4.2091,4.2127,4.2139,4.216,4.2136,4.2096,4.2116,4.1968,4.2134,4.2133,4.2133,4.2132,4.2132,4.0353,4.0446,4.0607,4.0681,4.0757,4.0876,4.0959,4.1051,4.1135,4.1285,4.1354,4.1491,4.1605,4.1815,4.1917,4.2048,4.2066,4.2122,4.2086,4.206,4.2063,4.2055,4.2064,4.2126,4.2127,4.2128,4.2128,0,4.0283,4.0379,4.0541,4.0693,4.0734,4.0825,4.0955,4.1043,4.112,4.1251,4.1287,4.1408,4.154,4.1635,4.1806,4.1851,4.2,4.2017,4.1957,4.1964,4.2021,4.2013,4.2199,4.2227,4.212,4.2121,4.2122,0,4.0223,4.0341,4.0476,4.0565,4.0699,4.0789,4.0918,4.0998,4.1107,4.1211,4.127,4.1366,4.1473,4.1583,4.165,4.1789,4.1822,4.1864,4.1879,4.1857,4.1851,4.19,4.1893,4.1916,4.1915,4.1914,4.1913,0,4.01,4.0313,4.0459,4.0522,4.0697,4.0763,4.0839,4.0962,4.1043,4.1163,4.1216,4.1351,4.1423,4.1526,4.161,4.1581,4.1784,4.1762,4.1826,4.1823,4.1863,4.1859,4.2002,4.1912,4.1912,4.1911,4.1911,0,4.0065,4.0186,4.0384,4.053,4.0582,4.0679,4.0816,4.0921,4.1047,4.1096,4.1191,4.1241,4.1373,4.1344,4.1526,4.1464,4.1532,4.1586,4.1592,4.1607,4.157,4.1634,4.1764,4.1779,4.1623,4.1621,4.1619,0,3.9896,4.0123,4.0202,4.0388,4.0506,4.0562,4.0672,4.0782,4.0856,4.0966,4.1048,4.1173,4.1171,4.1223,4.1302,4.1391,4.1471,4.1383,4.1537,4.1541,4.1497,4.1619,4.1613,4.1725,4.159,4.1593,4.1595,0,3.9777,3.999,4.0018,4.0094,4.0256,4.0355,4.0481,4.0625,4.0693,4.0813,4.0919,4.1099,4.1104,4.119,4.1245,4.1322,4.1419,4.1317,4.1322,4.1329,4.1584,4.1577,4.1596,4.1439,4.1443,4.1446,4.1572,0,3.9696,3.9823,3.9904,4.0072,4.0164,4.0288,4.0389,4.0472,4.0516,4.0591,4.0751,4.0868,4.1015,4.1063,4.1107,4.1253,4.1243,4.1247,4.1223,4.1304,4.1347,4.1366,4.115,4.115,4.115,4.115,0,0,3.9509,3.9693,3.9777,3.9903,3.9986,4.0044,4.0166,4.0254,4.0429,4.0484,4.0472,4.0742,4.0838,4.1021,4.1054,4.1115,4.1149,4.1118,4.1266,4.1278,4.129,4.1335,4.1352,4.115,4.115,4.115,4.115,0,3.9499,3.9598,3.9719,3.9813,3.9956,4.0031,4.006,4.0211,4.0265,4.0424,4.0469,4.0577,4.0792,4.0886,4.0962,4.1099,4.1125,4.1137,4.1175,4.1262,4.1274,4.1286,4.1332,4.1347,4.115,4.115,4.115,0,3.9398,3.951,3.958,3.9773,3.9867,3.9988,3.9988,4.0116,4.0206,4.0263,4.0419,4.0498,4.0634,4.0796,4.0872,4.0863,4.1097,4.1043,4.1047,4.1056,4.1145,4.116,4.1173,4.0996,4.0995,4.0995,0,0,3.9375,3.9495,3.9644,3.9779,3.9835,3.9948,4.0023,4.0074,4.0195,4.0243,4.0345,4.0461,4.0586,4.0667,4.079,4.0954,4.0988,4.102,4.1027,4.1033,4.1045,4.1135,4.115,4.0991,4.0991,4.0991,0,0,3.9365,3.9543,3.9566,3.9734,3.9848,4.0003,4.0081,4.0112,4.0233,4.023,4.0323,4.0358,4.0511,4.0587,4.0527,4.0783,4.0758,4.0775,4.0727,4.0738,4.0745,4.0722,4.0543,0,0,0,0,0,3.9407,3.9521,3.954,3.9583,3.9828,3.9993,4.0025,4.0104,4.0083,4.0143,4.0233,4.0257,4.0573,4.0522,4.0564,4.0629,4.0944,4.0952,4.096,4.0939,4.0949,4.0957,0,0,0,0,0,0,3.9425,3.9478,3.9537,3.9695,3.9751,3.999,3.9972,3.9997,4.0079,4.0081,4.0239,4.0262,4.0332,4.0506,4.0543,4.0603,4.0531,4.0947,4.0954,4.0961,4.0942,4.095,4.0957,0,0,0,0,0,3.944,3.9482,3.9854,3.9695,3.9743,3.9875,3.9969,3.9989,4.0054,4.0194,4.0218,4.0106,4.0332,4.0368,4.0528,4.0585,4.0506,4.0519,4.0952,4.0958,4.0963,4.0946,0,0,0,0,0,0,3.9451,3.9502,3.9866,3.9883,3.9658,3.9863,3.9898,3.9982,4.0163,4.0188,4.0065,4.0064,4.0333,4.0361,4.0388,4.0574,4.0486,4.05,4.0508,4.0956,4.0961,4.0964,0,0,0,0,0,0,3.948,3.9517,3.9875,3.9824,3.9837,3.9852,3.9883,4.0031,4.0164,4.0024,4.0029,4.0062,4.0292,4.0357,4.0378,4.0606,4.0471,4.0484,4.0493,4.0498,4.096,4.0963,0,0,0,0,0,0,3.9497,3.9529,3.982,3.983,3.984,4.0045,3.9984,4.023,4.0121,4.0015,4.0113,4.0109,4.0287,4.031,4.0371,4.0589,4.0602,4.0471,4.048,4.0486,4.049,0,0,0,0,0,0,0,3.9511,3.9279,3.9761,3.9834,3.9844,4.0047,4.0052,4.0056,4.012,4.0117,4.0114,4.0111,4.0397,4.0411,4.0426,4.0576,0,0,4.047,4.0476,0,0,0,0,0,0,0,0,3.9268,3.9276,3.9761,3.9765,3.9769,4.0048,4.0052,4.0055,4.0119,4.0117,4.0114,4.0112,4.0401,4.0413,4.0424,0,0,0,0,0,0,0,0,0,0,0,0,0,0,0,3.9762,3.9765,0,4.0048,4.0051,4.0055,4.0119,4.0117,4.0115,4.0113,4.0404,4.0414,4.0423,0,0,0,0,0,0,0,0,0,0,0,0,0,0,0,0,0,0,0,0,0,0,0,0,0,0,0,0,0,0,0,0,0,0,0,0,0,0,0,0,0,0,0,0,0,0,0,0,0,0,0,0,0,0,0,0,0,0,0,0,0,0,0,0,0,0,0,0,0]}],[{"header":{"parameterUnit":"kt","parameterCategory":2,"dx":1,"dy":1,"la1":30.253999710083008,"la2":30.299108505249023,"lo1":-89.0895004272461,"lo2":-89.04439544677734,"nx":28,"ny":28,"refTime":"2022-10-05T21:00:00:Z","depth":0,"parameterNumber":2,"parameterNumberName":"V-component_of_WINDS"},"data":[3.8121,3.8152,3.8135,3.8162,3.8152,3.8167,3.8167,3.8165,3.816,3.8176,3.8183,3.8169,3.8156,3.8159,3.8165,3.8159,3.8162,3.8185,3.8173,3.8086,3.8073,3.806,3.8051,3.8186,3.8186,3.8265,3.8266,3.8266,3.8056,3.8045,3.8056,3.8054,3.8062,3.8029,3.8025,3.8033,3.8049,3.8042,3.8048,3.8061,3.807,3.8049,3.8054,3.8067,3.8052,3.807,3.8068,3.8066,3.7973,3.7963,3.8082,3.8082,3.8082,3.8082,3.8082,3.8082,3.7933,3.7953,3.7941,3.7952,3.7947,3.7946,3.7961,3.7944,3.7953,3.7957,3.7935,3.7952,3.7942,3.794,3.7935,3.7947,3.7925,3.7939,3.7942,3.7945,3.7951,3.7837,3.7948,3.7947,3.7947,3.7947,3.7946,0,3.7837,3.7821,3.783,3.7834,3.7841,3.7842,3.7841,3.785,3.7811,3.7821,3.7834,3.7838,3.7846,3.7856,3.7857,3.7849,3.7815,3.7811,3.782,3.783,3.7838,3.7832,3.7679,3.7808,3.7806,3.7805,3.7805,3.7804,3.771,3.7736,3.7717,3.7725,3.772,3.7735,3.774,3.7704,3.7711,3.7704,3.7723,3.7733,3.7738,3.7761,3.774,3.7747,3.773,3.7781,3.7731,3.7739,3.7729,3.7727,3.7729,3.7791,3.7793,3.7794,3.7795,0,3.764,3.7612,3.7647,3.7626,3.7621,3.765,3.7631,3.765,3.7631,3.7654,3.7657,3.7628,3.7641,3.7612,3.7621,3.7605,3.7651,3.7636,3.7653,3.7648,3.7689,3.7685,3.783,3.7847,3.7708,3.7709,3.771,0,3.752,3.7556,3.7512,3.7534,3.7573,3.7535,3.7574,3.7562,3.7553,3.7571,3.7529,3.7546,3.7507,3.752,3.7497,3.7529,3.7531,3.752,3.7514,3.7523,3.7525,3.7526,3.7519,3.75,3.7499,3.7498,3.7498,0,3.7412,3.7432,3.7467,3.7467,3.7448,3.7466,3.7459,3.7449,3.7455,3.7458,3.7461,3.7467,3.747,3.7475,3.7446,3.7413,3.7485,3.7434,3.7474,3.7474,3.749,3.749,3.7627,3.7497,3.7496,3.7496,3.7496,0,3.731,3.7314,3.7371,3.7354,3.736,3.7385,3.7387,3.7401,3.7394,3.7381,3.7383,3.7351,3.7379,3.7329,3.7365,3.7331,3.7336,3.7329,3.7331,3.7331,3.7276,3.7355,3.749,3.7502,3.7331,3.733,3.7329,0,3.7193,3.7243,3.7212,3.7267,3.7286,3.7236,3.7262,3.7257,3.7242,3.7255,3.7238,3.7254,3.7211,3.7212,3.7234,3.7217,3.7262,3.721,3.7228,3.7229,3.723,3.7354,3.738,3.7464,3.7311,3.7313,3.7314,0,3.7098,3.7076,3.7088,3.7086,3.7074,3.7091,3.7121,3.7129,3.7139,3.714,3.7163,3.7186,3.7154,3.7157,3.7132,3.7156,3.723,3.7118,3.7118,3.7138,3.73,3.7325,3.7339,3.7208,3.721,3.7212,3.73,0,3.6948,3.697,3.7003,3.7002,3.701,3.7044,3.7013,3.7025,3.6999,3.6983,3.7018,3.7007,3.7016,3.7025,3.7001,3.7067,3.7051,3.7017,3.6966,3.7049,3.7077,3.7088,3.6927,3.6925,3.6924,3.6923,0,0,3.6841,3.6873,3.6838,3.6866,3.6871,3.6819,3.6858,3.6856,3.6855,3.6859,3.683,3.6861,3.6855,3.69,3.6924,3.6928,3.6936,3.6909,3.701,3.702,3.7029,3.706,3.7072,3.692,3.692,3.6919,3.6919,0,3.6779,3.6775,3.6814,3.681,3.6804,3.6785,3.6794,3.6779,3.677,3.6806,3.6762,3.678,3.6807,3.6804,3.6806,3.6903,3.6869,3.6908,3.697,3.6997,3.7009,3.7019,3.7052,3.7064,3.6915,3.6916,3.6916,0,3.6679,3.6669,3.6685,3.6694,3.669,3.6712,3.665,3.6677,3.6692,3.6635,3.667,3.6661,3.6656,3.6704,3.6725,3.6699,3.6809,3.677,3.6778,3.6779,3.6804,3.6819,3.6831,3.6664,3.6663,3.6663,0,0,3.663,3.6652,3.6629,3.6678,3.6679,3.665,3.6659,3.6635,3.6632,3.6631,3.6618,3.6616,3.663,3.6641,3.6653,3.6712,3.6707,3.674,3.6752,3.6762,3.6769,3.6796,3.681,3.666,3.666,3.666,0,0,3.6607,3.6582,3.6557,3.6611,3.6609,3.659,3.6621,3.659,3.6599,3.6591,3.6552,3.6549,3.6594,3.6587,3.6552,3.6634,3.6585,3.6592,3.6638,3.6652,3.6664,3.6664,3.6488,0,0,0,0,0,3.6528,3.6585,3.6563,3.6567,3.6579,3.6603,3.6604,3.6572,3.6537,3.6562,3.6546,3.651,3.6559,3.6528,3.6533,3.6571,3.6623,3.663,3.6636,3.6707,3.6723,3.6736,0,0,0,0,0,0,3.6529,3.6535,3.6561,3.6545,3.6547,3.66,3.6534,3.6527,3.6534,3.6526,3.6514,3.6509,3.6483,3.6523,3.6528,3.6566,3.6486,3.6626,3.6631,3.6636,3.6713,3.6725,3.6736,0,0,0,0,0,3.653,3.6535,3.6563,3.6544,3.6546,3.6518,3.6531,3.6525,3.653,3.6505,3.6499,3.6505,3.6485,3.6487,3.6526,3.6564,3.6483,3.6485,3.6629,3.6634,3.6638,3.6719,0,0,0,0,0,0,3.6531,3.6529,3.6562,3.6562,3.652,3.6514,3.6512,3.6524,3.6508,3.6503,3.6495,3.6489,3.6487,3.6488,3.649,3.6565,3.648,3.6482,3.6483,3.6633,3.6636,3.6639,0,0,0,0,0,0,3.6526,3.6529,3.6562,3.6534,3.653,3.6511,3.6509,3.6538,3.6508,3.6498,3.6492,3.6492,3.6484,3.6489,3.649,3.6537,3.6477,3.6479,3.6481,3.6481,3.6636,3.6638,0,0,0,0,0,0,3.6527,3.6529,3.6534,3.6531,3.6527,3.6518,3.6536,3.655,3.6484,3.6499,3.6477,3.6474,3.6487,3.6487,3.6491,3.6538,3.6537,3.6477,3.6479,3.648,3.648,0,0,0,0,0,0,0,3.6527,3.652,3.6566,3.6528,3.6525,3.6557,3.6556,3.6556,3.6484,3.6481,3.6478,3.6476,3.6467,3.6469,3.6471,3.6538,0,0,3.6477,3.6478,0,0,0,0,0,0,0,0,3.6518,3.652,3.6566,3.6566,3.6566,3.6557,3.6556,3.6556,3.6483,3.6481,3.6479,3.6477,3.6467,3.6469,3.6471,0,0,0,0,0,0,0,0,0,0,0,0,0,0,0,3.6566,3.6566,0,3.6557,3.6556,3.6556,3.6483,3.6481,3.6479,3.6478,3.6468,3.6469,3.647,0,0,0,0,0,0,0,0,0,0,0,0,0,0,0,0,0,0,0,0,0,0,0,0,0,0,0,0,0,0,0,0,0,0,0,0,0,0,0,0,0,0,0,0,0,0,0,0,0,0,0,0,0,0,0,0,0,0,0,0,0,0,0,0,0,0,0,0,0]}]]]